Location: Peebles
(55.6412°N, 3.1714°W)
Time: 00:43:27
(UTC+01:00)

deb Agena D - Pass Details

Date: 24 September 2024
Orbit: 793 x 976 km, 99.8° (Epoch: 11 October)

Event Time Altitude Azimuth Distance (km) Brightness Sun altitude
Rises 02:10:27 0° 24° (NNE) 3,491 10.5 -33.4°
Reaches altitude 10° 02:13:21 10° 39° (NE) 2,579 9.5 -33.2°
Maximum altitude 02:17:51 23° 91° (E) 1,854 8.1 -33.0°
Enters shadow 02:18:23 23° 99° (E) 1,871 8.0 -33.0°
